Weather History for Peachtree City, GA

Change the Weather History Date:

Friday, October 11, 2013

  Actual Average Record
Temperature  
Mean Temperature 66 °F 63 °F  
Max Temperature 80 °F 76 °F 86 °F (2010)
Min Temperature 52 °F 50 °F 28 °F (2000)
Degree Days  
Heating Degree Days 0 4  
Month to date heating degree days 2 29  
Since 1 July heating degree days 3 42  
Cooling Degree Days 1 1  
Month to date cooling degree days 38 25  
Year to date cooling degree days 1539 1633  
Growing Degree Days 16 (Base 50)    
Moisture  
Dew Point 56 °F    
Average Humidity 71    
Maximum Humidity 100    
Minimum Humidity 42    
Precipitation  
Precipitation 0.00 in 0.12 in 0.16 in (2011)
Month to date precipitation 1.31 1.44  
Snow  
Snow 0.00 in - - ()
Month to date snowfall 0.0  
Since 1 July snowfall 0.0  
Since 1 September snowfall 0.0  
Snow Depth 0.00 in    
Sea Level Pressure  
Sea Level Pressure 30.03 in    
Wind  
Wind Speed 4 mph (NW)    
Max Wind Speed 16 mph    
Max Gust Speed 23 mph    
Visibility 9 miles    
Events      
T = Trace of Precipitation, MM = Missing Value Source: NWS Daily Summary

Daily Weather History Graph

Daily Weather History Graph

Search for Another Location

Airport:

Trip Planner

Search our weather history database for the weather conditions in past years. The results will help you decide how hot, cold, wet, or windy it might be!

Date:

Astronomy

Oct. 11, 2013 Rise Set
Actual Time 7:39 AM EDT 7:09 PM EDT
Civil Twilight 7:15 AM EDT 7:34 PM EDT
Nautical Twilight 6:46 AM EDT 8:02 PM EDT
Astronomical Twilight 6:17 AM EDT 8:31 PM EDT
Moon 2:11 PM EDT (10/11) No Moon Set
Length of Visible Light 12h 19m
Length of Day
11h 29m
Waxing Crescent, 47% of the Moon is Illuminated
Oct 11
Waxing Crescent
Oct 11
First Quarter
Oct 18
Full
Oct 26
Last Quarter
Nov 3
New

Hourly Weather History & Observations

Time (EDT) Temp. Heat Index Dew Point Humidity Pressure Visibility Wind Dir Wind Speed Gust Speed Precip Events Conditions
12:53 AM 57.0 °F - 55.0 °F 93% 30.04 in 9.0 mi Calm Calm - N/A   Clear
1:53 AM 55.9 °F - 54.0 °F 93% 30.03 in 10.0 mi Calm Calm - N/A   Clear
2:53 AM 55.0 °F - 54.0 °F 96% 30.03 in 9.0 mi Calm Calm - N/A   Clear
3:53 AM 54.0 °F - 53.1 °F 97% 30.02 in 8.0 mi Calm Calm - N/A   Clear
4:53 AM 54.0 °F - 53.1 °F 97% 30.02 in 8.0 mi Calm Calm - N/A   Clear
5:53 AM 53.1 °F - 52.0 °F 96% 30.03 in 9.0 mi Calm Calm - N/A   Clear
6:53 AM 52.0 °F - 52.0 °F 100% 30.05 in 7.0 mi Calm Calm - N/A   Clear
7:53 AM 52.0 °F - 51.1 °F 97% 30.07 in 6.0 mi Calm Calm - N/A   Clear
8:53 AM 57.9 °F - 57.0 °F 97% 30.08 in 6.0 mi Calm Calm - N/A   Clear
9:53 AM 64.0 °F - 57.9 °F 80% 30.09 in 10.0 mi NW 5.8 mph - N/A   Clear
10:53 AM 70.0 °F - 57.9 °F 65% 30.08 in 10.0 mi NW 5.8 mph - N/A   Clear
11:53 AM 75.9 °F - 55.0 °F 48% 30.07 in 10.0 mi WNW 10.4 mph - N/A   Clear
12:53 PM 78.1 °F - 55.9 °F 46% 30.06 in 10.0 mi NW 12.7 mph - 0.01 in   Clear
1:53 PM 78.1 °F - 55.0 °F 45% 30.04 in 10.0 mi NNW 15.0 mph 23.0 mph N/A   Partly Cloudy
2:53 PM 80.1 °F 80.1 °F 55.0 °F 42% 30.01 in 10.0 mi NW 11.5 mph - N/A   Partly Cloudy
3:53 PM 79.0 °F - 55.0 °F 44% 30.00 in 10.0 mi NW 10.4 mph - N/A   Clear
4:53 PM 78.1 °F - 55.0 °F 45% 30.00 in 10.0 mi Variable 6.9 mph - N/A   Clear
5:53 PM 77.0 °F - 55.0 °F 47% 29.99 in 10.0 mi NW 8.1 mph - N/A   Clear
6:53 PM 69.1 °F - 61.0 °F 75% 30.00 in 10.0 mi Calm Calm - N/A   Clear
7:38 PM 64.4 °F - 60.8 °F 88% 30.01 in 10.0 mi Calm Calm - N/A   Partly Cloudy
7:53 PM 64.0 °F - 61.0 °F 90% 30.01 in 10.0 mi Calm Calm - N/A   Partly Cloudy
8:53 PM 61.0 °F - 59.0 °F 93% 30.02 in 10.0 mi Calm Calm - N/A   Clear
9:07 PM 60.8 °F - 59.0 °F 94% 30.02 in 8.0 mi Calm Calm - N/A   Scattered Clouds
9:53 PM 59.0 °F - 57.9 °F 96% 30.03 in 10.0 mi Calm Calm - N/A   Clear
10:53 PM 57.9 °F - 57.0 °F 97% 30.03 in 9.0 mi Calm Calm - N/A   Clear
11:53 PM 57.0 °F - 55.0 °F 93% 30.02 in 8.0 mi Calm Calm - N/A   Clear